This is the latest recevied weather packets stored in our database for station/object KE0LFX. If no packets are shown the sender has not sent any weather packets the latest 10 day(s).
| Time | Temp. | Humidity | Pressure | Rain* | Wind** | Luminosity | Snow |
|---|---|---|---|---|---|---|---|
| 1777470611 | 8.89° C | 63% | 1021.9 hPa | 0 mm | - | 124 W/m² | - |
| 1777470306 | 8.89° C | 64% | 1022 hPa | 0 mm | - | 173 W/m² | - |
| 1777470003 | 8.89° C | 63% | 1022.1 hPa | 0 mm | - | 65 W/m² | - |
| 1777469698 | 8.89° C | 63% | 1022 hPa | 0 mm | - | 99 W/m² | - |
| 1777469394 | 8.33° C | 64% | 1022 hPa | 0 mm | - | 101 W/m² | - |
| 1777469089 | 8.33° C | 65% | 1022 hPa | 0 mm | - | 69 W/m² | - |
| 1777468784 | 8.33° C | 65% | 1021.8 hPa | 0 mm | - | 74 W/m² | - |
| 1777468481 | 8.33° C | 65% | 1022.2 hPa | 0 mm | - | 80 W/m² | - |
| 1777468178 | 8.33° C | 65% | 1021.9 hPa | 0 mm | - | 98 W/m² | - |
| 1777467873 | 7.78° C | 65% | 1021.9 hPa | 0 mm | - | 93 W/m² | - |
| 1777467569 | 7.78° C | 66% | 1021.9 hPa | 0 mm | - | 98 W/m² | - |
| 1777467265 | 7.78° C | 67% | 1021.8 hPa | 0 mm | - | 86 W/m² | - |
| 1777466961 | 7.78° C | 67% | 1021.6 hPa | 0 mm | - | 70 W/m² | - |
| 1777466659 | 7.78° C | 68% | 1021.7 hPa | 0 mm | - | 67 W/m² | - |
| 1777466355 | 7.78° C | 68% | 1021.7 hPa | 0 mm | - | 61 W/m² | - |
| 1777466052 | 7.78° C | 68% | 1021.7 hPa | 0 mm | - | 54 W/m² | - |
| 1777465748 | 7.78° C | 68% | 1021.6 hPa | 0 mm | - | 44 W/m² | - |
| 1777465444 | 7.78° C | 68% | 1022 hPa | 0 mm | - | 36 W/m² | - |
| 1777465143 | 7.78° C | 68% | 1021.7 hPa | 0 mm | - | 35 W/m² | - |
| 1777464838 | 7.78° C | 68% | 1021.5 hPa | 0 mm | - | 31 W/m² | - |
| 1777464534 | 7.22° C | 68% | 1021.4 hPa | 0 mm | - | 28 W/m² | - |
| 1777464230 | 7.78° C | 68% | 1021.5 hPa | 0 mm | - | 23 W/m² | - |
| 1777463925 | 7.22° C | 68% | 1021.9 hPa | 0 mm | - | 20 W/m² | - |
| 1777463620 | 7.22° C | 70% | 1021.6 hPa | 0 mm | - | 20 W/m² | - |
| 1777463316 | 7.22° C | 69% | 1021.6 hPa | 0 mm | - | 16 W/m² | - |
* Rain latest hour (hover to see other rain measurements)
** Current wind speed in m/s (hover to see current wind gust speed)